TimeEDT,TemperatureF,Dew PointF,Humidity,Sea Level PressureIn,VisibilityMPH,Wind Direction,Wind SpeedMPH,Gust SpeedMPH,PrecipitationIn,Events,Conditions,WindDirDegrees,DateUTC
12:15 AM,41.0,23.0,49,29.69,10.0,WNW,11.5,18.4,N/A,,Overcast,290,2013-03-25 04:15:00
12:35 AM,41.0,23.0,49,29.69,10.0,WNW,10.4,23.0,N/A,,Overcast,290,2013-03-25 04:35:00
12:55 AM,41.0,26.6,57,29.70,10.0,WNW,11.5,19.6,N/A,,Overcast,290,2013-03-25 04:55:00
1:15 AM,39.2,26.6,61,29.70,10.0,West,9.2,-,N/A,,Overcast,280,2013-03-25 05:15:00
1:35 AM,41.0,26.6,57,29.70,10.0,West,11.5,25.3,N/A,,Overcast,280,2013-03-25 05:35:00
1:55 AM,39.2,21.2,49,29.71,10.0,WNW,19.6,33.4,N/A,,Overcast,300,2013-03-25 05:55:00
2:15 AM,37.4,21.2,52,29.71,10.0,WNW,13.8,26.5,N/A,,Overcast,300,2013-03-25 06:15:00
2:55 AM,37.4,21.2,52,29.72,10.0,WNW,8.1,17.3,N/A,,Overcast,290,2013-03-25 06:55:00
3:15 AM,37.4,21.2,52,29.72,10.0,WNW,12.7,19.6,N/A,,Overcast,290,2013-03-25 07:15:00
3:35 AM,37.4,21.2,52,29.72,10.0,WNW,12.7,20.7,N/A,,Overcast,300,2013-03-25 07:35:00
3:55 AM,37.4,21.2,52,29.72,10.0,WNW,11.5,19.6,N/A,,Overcast,290,2013-03-25 07:55:00
4:15 AM,37.4,21.2,52,29.72,10.0,NW,8.1,19.6,N/A,,Overcast,310,2013-03-25 08:15:00
4:35 AM,35.6,21.2,56,29.73,10.0,WNW,10.4,17.3,N/A,,Overcast,290,2013-03-25 08:35:00
4:55 AM,35.6,19.4,52,29.73,10.0,West,10.4,18.4,N/A,,Overcast,280,2013-03-25 08:55:00
5:15 AM,35.6,19.4,52,29.74,10.0,WNW,8.1,20.7,N/A,,Overcast,290,2013-03-25 09:15:00
5:35 AM,35.6,17.6,48,29.74,10.0,WNW,13.8,20.7,N/A,,Overcast,290,2013-03-25 09:35:00
5:55 AM,35.6,15.8,44,29.75,10.0,WNW,9.2,26.5,N/A,,Overcast,290,2013-03-25 09:55:00
6:15 AM,35.6,17.6,48,29.75,10.0,WNW,6.9,-,N/A,,Overcast,300,2013-03-25 10:15:00
6:35 AM,35.6,17.6,48,29.76,10.0,West,9.2,18.4,N/A,,Overcast,280,2013-03-25 10:35:00
6:55 AM,35.6,17.6,48,29.76,10.0,West,6.9,17.3,N/A,,Overcast,280,2013-03-25 10:55:00
7:15 AM,35.6,17.6,48,29.77,10.0,WNW,15.0,25.3,N/A,,Overcast,300,2013-03-25 11:15:00
7:35 AM,35.6,17.6,48,29.77,10.0,WNW,16.1,23.0,N/A,,Overcast,300,2013-03-25 11:35:00
7:55 AM,33.8,17.6,52,29.77,10.0,WNW,15.0,20.7,N/A,,Overcast,290,2013-03-25 11:55:00
8:15 AM,33.8,17.6,52,29.78,10.0,WNW,12.7,20.7,N/A,,Overcast,290,2013-03-25 12:15:00
8:35 AM,33.8,17.6,52,29.79,10.0,WNW,10.4,21.9,N/A,,Overcast,300,2013-03-25 12:35:00
8:55 AM,33.8,15.8,48,29.80,10.0,WNW,9.2,24.2,N/A,,Overcast,290,2013-03-25 12:55:00
9:15 AM,33.8,17.6,52,29.80,10.0,WNW,9.2,18.4,N/A,,Overcast,290,2013-03-25 13:15:00
9:55 AM,35.6,15.8,44,29.83,10.0,WNW,12.7,24.2,N/A,,Overcast,290,2013-03-25 13:55:00
10:15 AM,33.8,14.0,44,29.84,10.0,WNW,13.8,24.2,N/A,,Overcast,300,2013-03-25 14:15:00
10:35 AM,35.6,15.8,44,29.85,10.0,West,11.5,24.2,N/A,,Overcast,280,2013-03-25 14:35:00
10:55 AM,35.6,14.0,41,29.85,10.0,WNW,11.5,25.3,N/A,,Overcast,290,2013-03-25 14:55:00
11:15 AM,35.6,15.8,44,29.87,10.0,WNW,8.1,23.0,N/A,,Overcast,290,2013-03-25 15:15:00
11:35 AM,35.6,14.0,41,29.87,10.0,WNW,17.3,31.1,N/A,,Overcast,290,2013-03-25 15:35:00
11:55 AM,35.6,14.0,41,29.88,10.0,WNW,9.2,25.3,N/A,,Overcast,300,2013-03-25 15:55:00
12:15 PM,35.6,15.8,44,29.88,10.0,WNW,9.2,18.4,N/A,,Overcast,290,2013-03-25 16:15:00
12:35 PM,35.6,14.0,41,29.89,10.0,WNW,17.3,25.3,N/A,,Overcast,290,2013-03-25 16:35:00
12:55 PM,37.4,14.0,38,29.89,10.0,WNW,15.0,23.0,N/A,,Overcast,290,2013-03-25 16:55:00
1:15 PM,37.4,15.8,41,29.89,10.0,WNW,16.1,24.2,N/A,,Overcast,300,2013-03-25 17:15:00
1:35 PM,37.4,15.8,41,29.90,10.0,West,11.5,24.2,N/A,,Overcast,280,2013-03-25 17:35:00
1:55 PM,37.4,15.8,41,29.89,10.0,WNW,15.0,24.2,N/A,,Overcast,300,2013-03-25 17:55:00
2:15 PM,37.4,14.0,38,29.89,10.0,WNW,15.0,24.2,N/A,,Overcast,290,2013-03-25 18:15:00
2:35 PM,39.2,15.8,39,29.89,10.0,WNW,11.5,24.2,N/A,,Overcast,300,2013-03-25 18:35:00
2:55 PM,39.2,14.0,36,29.89,10.0,WNW,12.7,24.2,N/A,,Overcast,290,2013-03-25 18:55:00
3:15 PM,41.0,14.0,33,29.89,10.0,WNW,17.3,29.9,N/A,,Mostly Cloudy,290,2013-03-25 19:15:00
3:35 PM,41.0,12.2,31,29.89,10.0,WNW,15.0,29.9,N/A,,Overcast,300,2013-03-25 19:35:00
3:55 PM,39.2,14.0,36,29.90,10.0,West,8.1,28.8,N/A,,Overcast,280,2013-03-25 19:55:00
4:15 PM,39.2,12.2,33,29.90,10.0,WNW,13.8,24.2,N/A,,Overcast,300,2013-03-25 20:15:00
4:35 PM,41.0,14.0,33,29.91,10.0,WNW,9.2,20.7,N/A,,Overcast,290,2013-03-25 20:35:00
4:55 PM,37.4,14.0,38,29.91,10.0,WNW,10.4,23.0,N/A,,Overcast,300,2013-03-25 20:55:00
5:15 PM,37.4,12.2,36,29.92,10.0,WNW,12.7,25.3,N/A,,Overcast,290,2013-03-25 21:15:00
5:35 PM,37.4,14.0,38,29.92,10.0,WNW,13.8,21.9,N/A,,Overcast,290,2013-03-25 21:35:00
5:55 PM,37.4,15.8,41,29.93,10.0,WNW,8.1,24.2,N/A,,Overcast,290,2013-03-25 21:55:00
6:15 PM,35.6,17.6,48,29.95,10.0,WNW,9.2,26.5,N/A,,Overcast,300,2013-03-25 22:15:00
6:35 PM,35.6,17.6,48,29.96,10.0,NW,5.8,20.7,N/A,,Overcast,310,2013-03-25 22:35:00
6:55 PM,35.6,15.8,44,29.97,10.0,WNW,10.4,18.4,N/A,,Overcast,290,2013-03-25 22:55:00
7:15 PM,35.6,17.6,48,29.98,10.0,WNW,13.8,25.3,N/A,,Overcast,300,2013-03-25 23:15:00
7:35 PM,35.6,17.6,48,29.99,10.0,WNW,10.4,23.0,N/A,,Overcast,290,2013-03-25 23:35:00
7:55 PM,35.6,17.6,48,29.99,10.0,WNW,15.0,20.7,N/A,,Overcast,300,2013-03-25 23:55:00
8:15 PM,35.6,17.6,48,30.00,10.0,WNW,9.2,23.0,N/A,,Overcast,300,2013-03-26 00:15:00
8:35 PM,33.8,17.6,52,30.00,10.0,WNW,8.1,23.0,N/A,,Overcast,300,2013-03-26 00:35:00
8:55 PM,33.8,17.6,52,30.01,10.0,WNW,10.4,18.4,N/A,,Overcast,300,2013-03-26 00:55:00
9:15 PM,33.8,17.6,52,30.02,10.0,NW,8.1,16.1,N/A,,Overcast,310,2013-03-26 01:15:00
9:35 PM,33.8,17.6,52,30.02,10.0,NW,5.8,23.0,N/A,,Overcast,310,2013-03-26 01:35:00
9:55 PM,33.8,17.6,52,30.02,10.0,WNW,11.5,17.3,N/A,,Overcast,300,2013-03-26 01:55:00
10:15 PM,33.8,17.6,52,30.03,10.0,NW,5.8,16.1,N/A,,Overcast,310,2013-03-26 02:15:00
10:35 PM,33.8,17.6,52,30.03,10.0,WNW,6.9,-,N/A,,Overcast,300,2013-03-26 02:35:00
10:55 PM,33.8,17.6,52,30.04,10.0,WNW,6.9,-,N/A,,Overcast,300,2013-03-26 02:55:00
11:15 PM,33.8,17.6,52,30.04,10.0,WNW,10.4,18.4,N/A,,Overcast,300,2013-03-26 03:15:00
11:35 PM,33.8,17.6,52,30.05,10.0,WNW,10.4,16.1,N/A,,Overcast,290,2013-03-26 03:35:00
11:55 PM,33.8,17.6,52,30.05,10.0,WNW,4.6,-,N/A,,Overcast,290,2013-03-26 03:55:00